Regional Weather Roundup
Issued by NWS

Home | Current Version | Previous Version | Text Only | Print | Product List | Glossary On
Versions: 1 2 3 4 5 6 7 8 9 10 11 12 13 14 15 16 17 18 19 20 21 22 23 24 25 26 27 28 29 30 31 32 33 34 35 36 37 38 39 40 41 42 43 44 45 46 47 48 49 50
000
ASUS45 KREV 291610
RWRNV
NEVADA REGIONAL WEATHER ROUNDUP
NATIONAL WEATHER SERVICE RENO NV
900 AM PDT THU JUN 29 2017

NOTE: "FAIR" INDICATES FEW OR NO CLOUDS BELOW 12,000 FEET WITH NO
SIGNIFICANT WEATHER AND/OR OBSTRUCTIONS TO VISIBILITY.

NVZ001-003-004-291700-
WESTERN NEVADA

CITY           SKY/WX    TMP DP  RH WIND       PRES   REMARKS
RENO           SUNNY     71  38  29 CALM      30.12S
CARSON CITY    FAIR      64  32  29 SW3       30.15R
MINDEN         FAIR      64  36  34 SW5       30.15S
FALLON         SUNNY     76  28  17 N9        30.07R
LOVELOCK       SUNNY     76  26  15 NE8       30.07R
HAWTHORNE      SUNNY     73  36  25 N7        30.09R
$$

NVZ002-CAZ072-073-291700-
NORTHERN AND CENTRAL SIERRA

CITY           SKY/WX    TMP DP  RH WIND       PRES   REMARKS
S. LAKE TAHOE  SUNNY     60  35  39 CALM      30.22R
TRUCKEE        SUNNY     54  37  54 CALM      30.21S
SQUAW VLY 8000   N/A     55  34  44 S2          N/A
SUSANVILLE       N/A    N/A N/A N/A MISG        N/A
MAMMOTH LAKES  FAIR      66  36  33 SE5       30.25S
BRIDGEPORT     FAIR      57  25  29 CALM      30.22S
$$

NVZ030-031-036-291700-
NORTHERN NEVADA

CITY           SKY/WX    TMP DP  RH WIND       PRES   REMARKS
ELKO           SUNNY     68  22  17 CALM      30.12R
WINNEMUCCA     SUNNY     73  23  15 W6        30.10R
WENDOVER       SUNNY     74  25  16 E8        30.06R
$$

NVZ035-037-291700-
CENTRAL NEVADA

CITY           SKY/WX    TMP DP  RH WIND       PRES   REMARKS
ELY            SUNNY     71  30  21 VRB3      30.17R
EUREKA           N/A     70  27  20 VRB3      30.16R
$$

NVZ013-014-291700-
SOUTH CENTRAL NEVADA

CITY           SKY/WX    TMP DP  RH WIND       PRES   REMARKS
TONOPAH        SUNNY     78  34  20 N5        30.12S
$$

NVZ017-020-022-291700-
SOUTHERN NEVADA

CITY           SKY/WX    TMP DP  RH WIND       PRES   REMARKS
LAS VEGAS      SUNNY     92  21   7 VRB3      29.86S
N. LAS VEGAS   SUNNY     89  28  11 E5        29.86R
NELLIS AFB     SUNNY     91  41  17 CALM      29.86R
HENDERSON      SUNNY     91  30  11 W6        29.90R
MERCURY        SUNNY     86  24  10 SW6       29.94S
$$



USA.gov is the U.S. government's official web portal to all federal, state and local government web resources and services.